N5JNG Weather Reports


time (UTC)temp
F
wind
direction
speed
knots
gust
knots
rain 1hr
in
rain 24hr
in
rain mn
in
humidity
%
barometer
mb
20260506231514 83 117 5.2 7.8 0.00 0.01 0.01 100 1006.5
20260506231013 83 134 6.1 7.8 0.00 0.01 0.01 100 1006.4
20260506230513 83 125 7.0 9.6 0.00 0.01 0.01 100 1006.4
20260506230013 83 113 7.0 9.6 0.00 0.01 0.01 100 1006.4
20260506225513 83 123 7.0 8.7 0.00 0.01 0.01 100 1006.3
20260506225013 83 120 5.2 7.8 0.00 0.01 0.01 100 1006.3
20260506224013 83 135 5.2 7.8 0.00 0.01 0.01 100 1006.2
20260506223514 83 118 4.3 7.8 0.00 0.01 0.01 100 1006.2
20260506223013 83 122 4.3 7.8 0.00 0.01 0.01 100 1006.2
20260506222513 83 127 6.1 8.7 0.00 0.01 0.01 100 1006.1
20260506222011 83 122 7.0 9.6 0.00 0.01 0.01 100 1006.0
20260506221513 83 126 6.1 9.6 0.00 0.01 0.01 100 1006.0
20260506220011 83 94 7.0 8.7 0.00 0.01 0.01 100 1006.2
20260506215511 83 120 7.0 9.6 0.00 0.01 0.01 100 1006.2
20260506214511 83 104 7.0 11.3 0.00 0.01 0.01 100 1006.2
20260506214011 83 91 7.0 10.4 0.00 0.01 0.01 100 1006.2
20260506213510 83 118 7.8 13.9 0.00 0.01 0.01 100 1006.2
20260506213009 83 127 8.7 13.9 0.00 0.01 0.01 100 1006.2
20260506212508 83 118 8.7 13.0 0.00 0.01 0.01 100 1006.2
20260506212009 83 117 8.7 12.2 0.00 0.01 0.01 100 1006.2
20260506211509 83 116 8.7 15.6 0.00 0.01 0.01 100 1006.3
20260506211009 83 108 9.6 15.6 0.00 0.01 0.01 100 1006.4
20260506210009 83 127 8.7 13.0 0.00 0.01 0.01 100 1006.4
20260506205509 83 112 6.1 12.2 0.00 0.01 0.01 100 1006.5
20260506205009 83 109 7.0 10.4 0.00 0.01 0.01 100 1006.5
20260506204509 83 109 7.8 11.3 0.00 0.01 0.01 100 1006.6
20260506203007 83 120 7.0 10.4 0.00 0.01 0.01 100 1006.8
20260506202507 83 130 7.8 10.4 0.00 0.01 0.01 100 1006.9
20260506202008 83 116 7.8 10.4 0.00 0.01 0.01 100 1007.0
20260506201507 83 121 8.7 12.2 0.00 0.01 0.01 100 1006.9
20260506201007 83 121 8.7 12.2 0.00 0.01 0.01 100 1007.0
20260506200507 84 112 8.7 11.3 0.00 0.01 0.01 100 1007.0
20260506200007 84 133 7.8 12.2 0.00 0.01 0.01 100 1007.0
20260506195506 84 122 7.8 12.2 0.00 0.01 0.01 100 1007.1
20260506195005 84 117 7.8 12.2 0.00 0.01 0.01 100 1007.0
20260506194505 84 101 7.8 12.2 0.00 0.01 0.01 100 1007.1
20260506194005 84 114 7.8 10.4 0.00 0.01 0.01 100 1007.2
20260506193505 84 116 7.0 9.6 0.00 0.01 0.01 100 1007.3
20260506193005 84 121 7.0 9.6 0.00 0.01 0.01 100 1007.3
20260506192005 83 126 6.1 9.6 0.00 0.01 0.01 100 1007.5
20260506191505 84 132 5.2 7.8 0.00 0.01 0.01 100 1007.6
20260506191005 84 146 5.2 8.7 0.00 0.01 0.01 100 1007.6
20260506190504 84 157 6.1 9.6 0.00 0.01 0.01 100 1007.7
20260506190005 84 123 5.2 9.6 0.00 0.01 0.01 100 1007.7
20260506185503 84 101 4.3 9.6 0.00 0.01 0.01 100 1007.6
20260506184003 84 176 5.2 9.6 0.00 0.01 0.01 100 1007.6
20260506183503 84 114 5.2 9.6 0.00 0.01 0.01 100 1007.6
20260506183004 84 164 5.2 9.6 0.00 0.01 0.01 100 1007.7
20260506182003 83 144 7.0 10.4 0.00 0.01 0.01 100 1007.8
20260506181002 83 155 7.8 10.4 0.00 0.01 0.01 100 1008.0
20260506180501 82 134 7.8 10.4 0.00 0.01 0.01 100 1008.1
20260506180001 82 136 7.0 10.4 0.00 0.01 0.01 100 1008.2
20260506175501 82 112 7.0 12.2 0.00 0.01 0.01 100 1008.2
20260506175002 82 160 7.0 12.2 0.01 0.01 0.01 100 1008.3
20260506174501 82 146 7.0 11.3 0.01 0.01 0.01 100 1008.4
20260506174001 82 134 6.1 10.4 0.01 0.01 0.01 100 1008.3
20260506173501 81 140 5.2 8.7 0.01 0.01 0.01 100 1008.3
20260506172501 81 123 3.5 7.0 0.01 0.01 0.01 100 1008.4
20260506171500 81 144 1.7 6.1 0.01 0.01 0.01 100 1008.3
20260506170959 81 144 1.7 4.3 0.01 0.01 0.01 100 1008.5
20260506170459 81 144 2.6 5.2 0.01 0.01 0.01 100 1008.4
20260506165959 81 132 4.3 7.8 0.01 0.01 0.01 100 1008.4
20260506165500 81 115 5.2 7.8 0.01 0.01 0.01 100 1008.3
20260506164957 81 106 6.1 7.8 0.00 0.00 0.00 100 1008.2
20260506163957 81 116 4.3 7.8 0.00 0.00 0.00 100 1008.3
20260506163459 81 128 5.2 8.7 0.00 0.00 0.00 100 1008.2
20260506162457 81 138 7.0 9.6 0.00 0.00 0.00 100 1008.1
20260506161955 81 140 7.8 12.2 0.00 0.00 0.00 100 1008.1
20260506161456 81 114 7.8 12.2 0.00 0.00 0.00 100 1008.0
20260506160955 81 119 7.0 11.3 0.00 0.00 0.00 100 1008.0
20260506160453 81 130 6.1 9.6 0.00 0.00 0.00 100 1007.8
20260506155952 81 170 6.1 10.4 0.00 0.00 0.00 100 1007.7
20260506155452 81 123 6.1 10.4 0.00 0.00 0.00 100 1007.7
20260506153451 81 117 7.0 12.2 0.00 0.00 0.00 100 1007.4
20260506152952 81 115 7.0 10.4 0.00 0.00 0.00 100 1007.3
20260506152452 81 129 7.8 12.2 0.00 0.00 0.00 100 1007.3
20260506151951 81 121 8.7 12.2 0.00 0.00 0.00 100 1007.2
20260506151451 81 128 8.7 12.2 0.00 0.00 0.00 100 1007.1
20260506150952 81 132 7.8 13.9 0.00 0.00 0.00 100 1007.2
20260506150452 81 129 7.8 13.9 0.00 0.00 0.00 100 1007.2
20260506145951 81 126 7.8 13.0 0.00 0.00 0.00 100 1007.1
20260506145452 81 119 7.8 13.0 0.00 0.00 0.00 100 1007.0
20260506144451 81 134 7.8 12.2 0.00 0.00 0.00 100 1007.1
20260506143951 81 146 7.8 11.3 0.00 0.00 0.00 100 1007.1
20260506143452 81 148 7.8 11.3 0.00 0.00 0.00 100 1006.9
20260506142951 81 119 7.8 11.3 0.00 0.00 0.00 100 1006.9
20260506141952 81 118 8.7 13.0 0.00 0.00 0.00 100 1007.0
20260506141452 81 116 8.7 13.0 0.00 0.00 0.00 100 1007.0
20260506140951 81 115 7.0 10.4 0.00 0.00 0.00 100 1007.2
20260506135952 80 107 7.0 9.6 0.00 0.00 0.00 100 1007.2
20260506134951 80 116 7.0 9.6 0.00 0.00 0.00 100 1006.9
20260506134451 80 105 6.1 9.6 0.00 0.00 0.00 100 1006.8
20260506133951 80 105 6.1 7.8 0.00 0.00 0.00 100 1006.9
20260506133452 80 130 6.1 9.6 0.00 0.00 0.00 100 1006.9
20260506132952 80 101 7.0 10.4 0.00 0.00 0.00 100 1006.8
20260506132451 80 105 6.1 10.4 0.00 0.00 0.00 100 1006.8
20260506131952 80 116 6.1 8.7 0.00 0.00 0.00 100 1006.8
20260506131452 80 105 6.1 8.7 0.00 0.00 0.00 100 1006.8
20260506130951 80 112 6.1 9.6 0.00 0.00 0.00 100 1006.8
20260506130451 80 104 5.2 9.6 0.00 0.00 0.00 100 1006.7
20260506125449 80 95 4.3 7.0 0.00 0.00 0.00 100 1006.7
20260506124949 80 97 5.2 8.7 0.00 0.00 0.00 100 1006.8
20260506124448 80 97 5.2 8.7 0.00 0.00 0.00 100 1006.6
20260506123948 80 84 5.2 7.0 0.00 0.00 0.00 100 1006.7
20260506122947 80 100 4.3 7.0 0.00 0.00 0.00 100 1006.8
20260506122448 80 109 4.3 7.0 0.00 0.00 0.00 100 1006.7
20260506121948 80 93 3.5 6.1 0.00 0.00 0.00 100 1006.7
20260506121448 80 104 4.3 6.1 0.00 0.00 0.00 100 1006.8
20260506120947 80 95 4.3 7.0 0.00 0.00 0.00 100 1006.7
20260506120448 80 101 4.3 7.0 0.00 0.00 0.00 100 1006.7
20260506115948 80 104 4.3 6.1 0.00 0.00 0.00 100 1006.5
20260506115448 80 102 4.3 6.1 0.00 0.00 0.00 100 1006.5
20260506114947 80 109 4.3 6.1 0.00 0.00 0.00 100 1006.5
20260506114447 80 109 4.3 6.1 0.00 0.00 0.00 100 1006.5
20260506113945 80 103 4.3 6.1 0.00 0.00 0.00 100 1006.4
20260506113446 80 111 3.5 6.1 0.00 0.00 0.00 100 1006.4
20260506112946 80 106 2.6 5.2 0.00 0.00 0.00 100 1006.4
20260506112446 80 104 3.5 5.2 0.00 0.00 0.00 100 1006.5
20260506111945 80 105 3.5 6.1 0.00 0.00 0.00 100 1006.4
20260506111445 80 101 3.5 6.1 0.00 0.00 0.00 100 1006.4
20260506110946 80 107 4.3 7.0 0.00 0.00 0.00 100 1006.5
20260506110446 80 116 4.3 7.0 0.00 0.00 0.00 100 1006.5
20260506105946 80 114 4.3 7.0 0.00 0.00 0.00 100 1006.4
20260506104944 80 114 4.3 7.0 0.00 0.00 0.00 100 1006.4
20260506104444 80 113 4.3 7.0 0.00 0.00 0.00 100 1006.4
20260506103944 80 119 4.3 6.1 0.00 0.00 0.00 100 1006.4
20260506103444 80 122 4.3 7.8 0.00 0.00 0.00 100 1006.5
20260506102944 80 129 3.5 7.8 0.00 0.00 0.00 100 1006.5
20260506101944 80 121 3.5 7.8 0.00 0.00 0.00 100 1006.6
20260506101444 80 119 4.3 7.8 0.00 0.00 0.00 100 1006.6
20260506100945 80 126 4.3 7.0 0.00 0.00 0.00 100 1006.5
20260506095942 80 144 4.3 7.0 0.00 0.00 0.00 100 1006.5
20260506095442 80 118 4.3 7.8 0.00 0.00 0.00 100 1006.4
20260506094942 80 117 4.3 7.8 0.00 0.00 0.00 100 1006.4
20260506094442 80 126 4.3 7.8 0.00 0.00 0.00 100 1006.4
20260506093942 80 125 4.3 8.7 0.00 0.00 0.00 100 1006.3
20260506093442 80 133 5.2 8.7 0.00 0.00 0.00 100 1006.1
20260506092942 80 119 4.3 7.8 0.00 0.00 0.00 100 1006.1
20260506092442 80 119 5.2 8.7 0.00 0.00 0.00 100 1006.2
20260506091942 80 126 6.1 8.7 0.00 0.00 0.00 100 1006.2
20260506090939 80 132 6.1 10.4 0.00 0.00 0.00 100 1006.2
20260506090440 80 111 6.1 10.4 0.00 0.00 0.00 100 1006.1
20260506085940 80 126 7.0 10.4 0.00 0.00 0.00 100 1006.1
20260506085440 80 124 7.0 12.2 0.00 0.00 0.00 100 1006.0
20260506084940 80 128 7.0 12.2 0.00 0.00 0.00 100 1006.1
20260506084439 80 148 7.0 9.6 0.00 0.00 0.00 100 1006.0
20260506083939 80 118 6.1 10.4 0.00 0.00 0.00 100 1006.1
20260506083440 80 142 6.1 10.4 0.00 0.00 0.00 100 1006.1
20260506082940 80 121 6.1 9.6 0.00 0.00 0.00 100 1006.1
20260506080936 80 109 7.0 11.3 0.00 0.00 0.00 100 1006.1
20260506080436 80 117 6.1 11.3 0.00 0.00 0.00 100 1006.2
20260506073436 80 128 6.1 13.0 0.00 0.00 0.00 100 1006.5
20260506072936 80 155 6.1 10.4 0.00 0.00 0.00 100 1006.6
20260506071934 80 161 5.2 9.6 0.00 0.00 0.00 100 1006.9
20260506071434 80 130 5.2 10.4 0.00 0.00 0.00 100 1006.9
20260506070934 80 146 5.2 11.3 0.00 0.00 0.00 100 1007.0
20260506070434 80 144 6.1 11.3 0.00 0.00 0.00 100 1006.9
20260506062434 80 160 7.0 13.0 0.00 0.00 0.00 100 1007.1
20260506061934 80 128 7.0 13.0 0.00 0.00 0.00 100 1007.2
20260506061432 80 131 7.0 13.0 0.00 0.00 0.00 100 1007.3
20260506060932 80 146 7.0 13.0 0.00 0.00 0.00 100 1007.2
20260506060433 80 137 7.0 11.3 0.00 0.00 0.00 100 1007.2
20260506050929 80 161 6.1 10.4 0.00 0.00 0.00 100 1007.1
20260506050427 80 152 7.8 13.0 0.00 0.00 0.00 100 1007.0
20260506044927 80 121 7.0 12.2 0.00 0.00 0.00 100 1007.2
20260506043427 80 132 7.8 11.3 0.00 0.00 0.00 100 1007.1
20260506042927 80 146 8.7 16.5 0.00 0.00 0.00 100 1007.2
20260506041926 81 138 7.8 12.2 0.00 0.00 0.00 100 1007.2
20260506040927 81 138 7.0 13.9 0.00 0.00 0.00 100 1007.2
20260506035927 81 148 7.8 13.0 0.00 0.00 0.00 100 1007.1
20260506035427 81 146 7.8 13.9 0.00 0.00 0.00 100 1007.2
20260506034926 81 147 7.0 13.9 0.00 0.00 0.00 100 1007.0
20260506034426 81 134 7.8 15.6 0.00 0.00 0.00 100 1007.0
20260506033927 81 150 8.7 15.6 0.00 0.00 0.00 100 1006.9
20260506033427 81 117 8.7 15.6 0.00 0.00 0.00 100 1006.9
20260506032926 81 113 7.8 15.6 0.00 0.00 0.00 100 1006.9
20260506032426 81 155 7.8 13.9 0.00 0.00 0.00 100 1006.7
20260506031427 80 130 7.0 13.0 0.00 0.00 0.00 100 1006.7
20260506030926 80 129 7.8 13.0 0.00 0.00 0.00 100 1006.6
20260506025926 80 150 8.7 13.9 0.00 0.00 0.00 100 1006.4
20260506025427 80 131 7.8 15.6 0.00 0.00 0.00 100 1006.4
20260506024926 80 140 7.8 15.6 0.00 0.00 0.00 100 1006.4
20260506024426 80 120 8.7 13.9 0.00 0.00 0.00 100 1006.3
20260506023927 80 119 9.6 16.5 0.00 0.00 0.00 100 1006.2
20260506022926 80 124 8.7 12.2 0.00 0.00 0.00 100 1006.1
20260506022426 81 123 8.7 13.9 0.00 0.00 0.00 100 1006.1
20260506021927 81 121 9.6 15.6 0.00 0.00 0.00 100 1006.0
20260506021427 81 144 9.6 15.6 0.00 0.00 0.00 100 1005.9
20260506020926 81 121 9.6 15.6 0.00 0.00 0.00 100 1005.9
20260506020427 81 133 8.7 15.6 0.00 0.00 0.00 100 1005.9
20260506015927 81 117 9.6 15.6 0.00 0.00 0.00 100 1005.9
20260506015428 81 134 9.6 13.9 0.00 0.00 0.00 100 1005.9
20260506014927 81 113 8.7 15.6 0.00 0.00 0.00 100 1005.9
20260506014428 81 126 8.7 15.6 0.00 0.00 0.00 100 1005.8
20260506013927 81 110 9.6 15.6 0.00 0.00 0.00 100 1005.5
20260506013428 81 113 9.6 13.9 0.00 0.00 0.00 100 1005.5
20260506012928 81 111 10.4 16.5 0.00 0.00 0.00 100 1005.4
20260506012427 81 119 11.3 18.2 0.00 0.00 0.00 100 1005.3
20260506011928 81 126 9.6 18.2 0.00 0.00 0.00 100 1005.3
20260506011428 81 118 9.6 15.6 0.00 0.00 0.00 100 1005.2
20260506010927 81 127 10.4 15.6 0.00 0.00 0.00 100 1005.1
20260506005928 81 108 9.6 17.4 0.00 0.00 0.00 100 1005.0
20260506005425 81 117 9.6 17.4 0.00 0.00 0.00 100 1005.0
20260506004924 81 153 10.4 16.5 0.00 0.00 0.00 100 1004.9
20260506004424 81 127 11.3 19.1 0.00 0.00 0.00 100 1004.9
20260506003925 81 128 11.3 19.1 0.00 0.00 0.00 100 1004.9
20260506003424 81 137 11.3 17.4 0.00 0.00 0.00 100 1004.8
20260506002925 82 114 10.4 17.4 0.00 0.00 0.00 100 1004.7
20260506002425 82 128 11.3 17.4 0.00 0.00 0.00 100 1004.8
20260506001424 82 123 11.3 18.2 0.00 0.00 0.00 100 1004.8
20260506000924 82 117 12.2 18.2 0.00 0.00 0.00 100 1004.8
20260505235923 82 132 12.2 20.0 0.00 0.00 0.00 100 1004.9
20260505235422 82 134 12.2 20.0 0.00 0.00 0.00 100 1004.8
20260505234423 83 128 13.0 20.0 0.00 0.00 0.00 100 1004.7
20260505233923 83 125 13.0 20.9 0.00 0.00 0.00 100 1004.7
20260505232923 83 128 11.3 19.1 0.00 0.00 0.00 100 1004.8
20260505232423 83 121 11.3 20.0 0.00 0.00 0.00 100 1005.0
20260505231922 83 121 11.3 20.0 0.00 0.00 0.00 100 1005.1